Weather History for KIBM - July, 2013

Change the Weather History Date:

Monday, July 29, 2013

  Actual Average (KSNY) Record (KSNY)
Temperature  
Mean Temperature 69 °F 76 °F  
Max Temperature 79 °F 90 °F 99 °F (2006)
Min Temperature 59 °F 61 °F 44 °F (1971)
Degree Days  
Heating Degree Days 0 0  
Month to date heating degree days 0  
Since 1 June heating degree days 59  
Since 1 July heating degree days 0  
Cooling Degree Days 4 11  
Month to date cooling degree days 299  
Year to date cooling degree days 458  
Since 1 June cooling degree days 436  
Growing Degree Days 19 (Base 50)    
Moisture  
Dew Point 57 °F    
Average Humidity 70    
Maximum Humidity 96    
Minimum Humidity 38    
Precipitation  
Precipitation 0.00 in 0.09 in 1.67 in (1953)
Month to date precipitation 2.78  
Year to date precipitation 12.72  
Sea Level Pressure  
Sea Level Pressure 30.06 in    
Wind  
Wind Speed 11 mph (SW)    
Max Wind Speed 20 mph    
Max Gust Speed 26 mph    
Visibility 7 miles    
Events Fog , Rain , Thunderstorm    
T = Trace of Precipitation, MM = Missing Value Source: NWS Daily Summary

Daily Weather History Graph

Daily Weather History Graph

Search for Another Location

Airport or City:

Trip Planner

Search our weather history database for the weather conditions in past years. The results will help you decide how hot, cold, wet, or windy it might be!

Date:

Astronomy

Jul. 29, 2013 Rise Set
Actual Time 6:47 AM CDT 9:14 PM CDT
Civil Twilight 6:16 AM CDT 9:45 PM CDT
Nautical Twilight 5:37 AM CDT 10:24 PM CDT
Astronomical Twilight 4:54 AM CDT 11:07 PM CDT
Moon 12:33 AM CDT (7/29) 2:36 PM CDT (7/29)
Length of Visible Light 15h 29m
Length of Day
14h 26m
Waning Gibbous, 50% of the Moon is Illuminated
Jul 29
Waning Gibbous
Jul 29
Last Quarter
Aug 6
New
Aug 14
First Quarter
Aug 20
Full

Hourly Weather History & Observations

Time (CDT) Temp. Dew Point Humidity Pressure Visibility Wind Dir Wind Speed Gust Speed Precip Events Conditions
12:15 AM 59.9 °F 57.6 °F 92% 30.00 in 5.0 mi SSE 15.0 mph 21.9 mph N/A   Overcast
12:35 AM 60.1 °F 57.7 °F 92% 30.00 in 5.0 mi South 17.3 mph - N/A   Overcast
12:55 AM 60.1 °F 57.6 °F 91% 30.01 in 7.0 mi South 18.4 mph 23.0 mph N/A   Overcast
1:15 AM 59.9 °F 57.2 °F 91% 30.00 in 7.0 mi South 19.6 mph 26.5 mph N/A   Overcast
1:35 AM 59.9 °F 57.4 °F 91% 30.00 in 7.0 mi SSE 16.1 mph - N/A   Overcast
1:55 AM 60.1 °F 57.4 °F 91% 30.00 in 7.0 mi South 18.4 mph 24.2 mph N/A Thunderstorm Overcast
2:15 AM 60.1 °F 57.7 °F 92% 29.99 in 5.0 mi South 16.1 mph 24.2 mph N/A   Overcast
2:55 AM 59.9 °F 58.3 °F 94% 29.99 in 2.5 mi South 12.7 mph - N/A   Overcast
3:15 AM 60.1 °F 58.5 °F 94% 29.99 in 3.0 mi SSE 12.7 mph - N/A   Overcast
3:55 AM 60.8 °F 59.0 °F 94% 30.01 in 4.0 mi SE 8.1 mph - N/A   Overcast
4:15 AM 60.8 °F 59.0 °F 94% 30.03 in 4.0 mi East 3.5 mph - N/A   Overcast
4:55 AM 60.1 °F 58.6 °F 95% 30.02 in 1.2 mi East 8.1 mph - N/A   Light Drizzle
5:15 AM 60.1 °F 58.6 °F 95% 30.01 in 1.5 mi East 6.9 mph - N/A Rain Light Rain
5:35 AM 59.9 °F 58.6 °F 96% 30.01 in 1.5 mi ESE 8.1 mph - N/A   Overcast
5:55 AM 59.9 °F 58.6 °F 96% 30.01 in 1.5 mi ESE 8.1 mph - N/A   Overcast
6:15 AM 59.9 °F 58.6 °F 96% 30.00 in 1.5 mi SE 9.2 mph - N/A   Overcast
6:35 AM 59.9 °F 58.6 °F 96% 30.00 in 0.8 mi SE 9.2 mph - N/A   Overcast
6:55 AM 60.1 °F 59.0 °F 96% 30.00 in 0.8 mi SSE 9.2 mph - N/A   Overcast
7:15 AM 60.1 °F 59.0 °F 96% 30.00 in 0.5 mi SSE 10.4 mph - N/A Fog Fog
7:35 AM 60.3 °F 59.0 °F 96% 30.00 in 1.0 mi South 9.2 mph - N/A   Overcast
7:55 AM 60.4 °F 59.2 °F 96% 30.01 in 2.0 mi South 9.2 mph - N/A   Overcast
8:15 AM 60.4 °F 59.2 °F 96% 30.01 in 1.2 mi South 9.2 mph - N/A   Overcast
8:35 AM 59.9 °F 58.5 °F 95% 30.02 in 0.5 mi South 10.4 mph - N/A Fog Fog
8:55 AM 59.9 °F 58.6 °F 96% 30.02 in 0.2 mi South 9.2 mph - N/A Fog Fog
9:15 AM 60.1 °F 59.0 °F 96% 30.03 in 0.8 mi SSW 8.1 mph - N/A   Overcast
9:35 AM 60.8 °F 59.7 °F 96% 30.03 in 2.5 mi SW 10.4 mph - N/A   Overcast
9:55 AM 62.4 °F 60.6 °F 94% 30.04 in 5.0 mi SW 10.4 mph - N/A   Overcast
10:15 AM 64.4 °F 60.1 °F 86% 30.04 in 10.0 mi SW 10.4 mph - N/A   Overcast
10:35 AM 66.4 °F 59.7 °F 79% 30.04 in 10.0 mi SW 9.2 mph - N/A   Overcast
10:55 AM 68.5 °F 59.4 °F 72% 30.04 in 10.0 mi WSW 6.9 mph - N/A   Scattered Clouds
11:15 AM 69.8 °F 59.2 °F 69% 30.04 in 10.0 mi SW 4.6 mph - N/A   Clear
11:35 AM 72.3 °F 59.2 °F 63% 30.04 in 10.0 mi West 6.9 mph - N/A   Clear
11:55 AM 73.4 °F 57.4 °F 57% 30.04 in 10.0 mi WNW 8.1 mph - N/A   Clear
12:15 PM 74.8 °F 57.0 °F 54% 30.04 in 10.0 mi WNW 9.2 mph - N/A   Scattered Clouds
12:35 PM 75.7 °F 57.6 °F 53% 30.04 in 10.0 mi North 6.9 mph - N/A   Scattered Clouds
12:55 PM 77.9 °F 55.9 °F 47% 30.04 in 10.0 mi NNW 15.0 mph - N/A   Scattered Clouds
1:15 PM 78.8 °F 55.9 °F 45% 30.04 in 10.0 mi NNW 15.0 mph 18.4 mph N/A   Scattered Clouds
1:35 PM 77.9 °F 56.1 °F 47% 30.05 in 10.0 mi NNW 16.1 mph 21.9 mph N/A   Mostly Cloudy
1:55 PM 78.6 °F 55.6 °F 45% 30.05 in 10.0 mi NW 10.4 mph 18.4 mph N/A   Scattered Clouds
2:15 PM 77.4 °F 55.4 °F 47% 30.06 in 10.0 mi North 11.5 mph 17.3 mph N/A   Scattered Clouds
2:35 PM 78.8 °F 56.5 °F 46% 30.07 in 10.0 mi North 8.1 mph 17.3 mph N/A   Scattered Clouds
2:55 PM 77.0 °F 57.0 °F 50% 30.07 in 10.0 mi North 11.5 mph 16.1 mph N/A   Scattered Clouds
3:15 PM 76.6 °F 57.6 °F 52% 30.07 in 10.0 mi NNE 10.4 mph - N/A   Scattered Clouds
3:35 PM 79.5 °F 55.2 °F 43% 30.08 in 10.0 mi North 11.5 mph - N/A   Scattered Clouds
3:55 PM 79.9 °F 53.1 °F 39% 30.08 in 10.0 mi North 11.5 mph 17.3 mph N/A   Clear
4:15 PM 79.2 °F 54.0 °F 42% 30.08 in 10.0 mi North 9.2 mph - N/A   Clear
4:35 PM 77.7 °F 52.3 °F 41% 30.08 in 10.0 mi NNW 9.2 mph - N/A   Clear
4:55 PM 78.1 °F 52.3 °F 41% 30.09 in 10.0 mi NNW 10.4 mph - N/A   Clear
5:15 PM 77.7 °F 52.5 °F 41% 30.10 in 10.0 mi North 5.8 mph - N/A   Clear
5:35 PM 78.1 °F 51.4 °F 39% 30.10 in 10.0 mi North 6.9 mph - N/A   Clear
5:55 PM 78.8 °F 51.4 °F 38% 30.10 in 10.0 mi North 8.1 mph - N/A   Clear
6:15 PM 78.1 °F 51.4 °F 39% 30.10 in 10.0 mi North 8.1 mph - N/A   Clear
6:35 PM 77.5 °F 50.9 °F 39% 30.10 in 10.0 mi North 3.5 mph - N/A   Clear
6:55 PM 77.0 °F 51.3 °F 40% 30.10 in 10.0 mi North 9.2 mph - N/A   Clear
7:15 PM 76.1 °F 52.7 °F 44% 30.10 in 10.0 mi NNW 5.8 mph - N/A   Mostly Cloudy
7:35 PM 76.1 °F 51.6 °F 42% 30.10 in 10.0 mi NNW 6.9 mph - N/A   Mostly Cloudy
7:55 PM 75.7 °F 54.0 °F 47% 30.11 in 10.0 mi NNW 3.5 mph - N/A   Clear
8:15 PM 75.2 °F 54.3 °F 48% 30.11 in 10.0 mi Calm Calm - N/A   Clear
8:35 PM 74.8 °F 54.0 °F 48% 30.11 in 10.0 mi Calm Calm - N/A   Scattered Clouds
8:55 PM 73.8 °F 55.9 °F 54% 30.13 in 10.0 mi Calm Calm - N/A   Scattered Clouds
9:15 PM 72.3 °F 57.4 °F 59% 30.13 in 10.0 mi NNE 3.5 mph - N/A   Mostly Cloudy
9:35 PM 70.7 °F 58.1 °F 64% 30.14 in 10.0 mi East 3.5 mph - N/A   Clear
9:55 PM 70.2 °F 59.4 °F 69% 30.15 in 10.0 mi Calm Calm - N/A   Clear
10:15 PM 70.7 °F 59.4 °F 67% 30.15 in 10.0 mi Calm Calm - N/A   Clear
10:35 PM 70.3 °F 59.7 °F 69% 30.15 in 10.0 mi SSE 3.5 mph - N/A   Clear
10:55 PM 68.0 °F 59.9 °F 75% 30.16 in 10.0 mi Calm Calm - N/A   Clear
11:15 PM 68.5 °F 60.1 °F 74% 30.17 in 10.0 mi Calm Calm - N/A   Clear
11:35 PM 67.3 °F 60.4 °F 79% 30.16 in 10.0 mi WSW 5.8 mph - N/A   Clear
11:55 PM 68.2 °F 59.5 °F 74% 30.15 in 10.0 mi South 5.8 mph - N/A   Clear